Hauptseite
METAR-TAF:

METAR-TAF

Flughäfen :

RAF Shawbury

Shawbury, England

Breite: 52-48N, Länge: 002-40W, Höhe: 76 m

Beobachtung

Neuester Wetterbericht von vor 1 Stunde und 6 Minuten, um 23:50 UTC
Wind 3 kt aus Nord/Nordost
Temperatur 13°C
Luftfeuchtigkeit 67%
Luftdruck 1000 hPa
Sichtweite 10 km oder mehr

METAR: EGOS 222350Z AUTO 03003KT 9999 FEW090/// BKN120/// BKN180/// 13/07 Q1000

Zeit: 01:56 (00:56 UTC)


TAF: fehlend

Wetterbeobachtungen und Prognosen von mehr als 4000 Flughäfen (METAR und TAF Bericht).

Die verfügbaren Stationen werden durch gelbe und rote Markierungen auf der Karte dargestellt.

Führen Sie die Maus auf sie, um den Namen der Station zu sehen.

Darauf klicken, um die Beobachtung von Wetterbeobachtungen und Prognosen zu sehen.

Um die Karte zu ändern : klicken Sie auf den grünen Tasten mit einem schwarzen Kreuz Zum Vergrößern, auf den grünen Button mit einem Gedankenstrich zu verkleinern, oder auf die grünen Pfeile für benachbarte Karten.


METAR-TAF: